| time (UTC) | temp F | wind direction | speed MPH | gust MPH | rain 1hr in | rain 24hr in | rain mn in | humidity % | barometer mb |
| 20260509114838 | 49 | 9 | 2.0 | 5.0 | 0.00 | 0.00 | 0.00 | 100 | |
| 20260509112837 | 52 | 45 | 4.0 | 6.0 | 0.00 | 0.00 | 0.00 | 100 | |
| 20260509110836 | 49 | 142 | 5.0 | 10.0 | 0.00 | 0.00 | 0.00 | 100 | |
| 20260509104834 | 48 | 35 | 3.0 | 6.0 | 0.00 | 0.00 | 0.00 | 100 | |
| 20260509102833 | 42 | 80 | 0.0 | 1.0 | 0.00 | 0.00 | 0.00 | 100 | |
| 20260509100832 | 42 | 208 | 2.0 | 3.0 | 0.00 | 0.00 | 0.00 | 100 | |
| 20260509094831 | 41 | 298 | 1.0 | 3.0 | 0.00 | 0.00 | 0.00 | 100 | |
| 20260509092830 | 42 | 338 | 3.0 | 5.0 | 0.00 | 0.00 | 0.00 | 100 | |
| 20260509090829 | 43 | 303 | 3.0 | 6.0 | 0.00 | 0.00 | 0.00 | 100 | |
| 20260509084827 | 43 | 299 | 3.0 | 4.0 | 0.00 | 0.00 | 0.00 | 100 | |
| 20260509082826 | 44 | 310 | 2.0 | 8.0 | 0.00 | 0.00 | 0.00 | 100 | |
| 20260509080825 | 46 | 309 | 6.0 | 8.0 | 0.00 | 0.00 | 0.00 | 100 | |
| 20260509074824 | 44 | 352 | 0.0 | 7.0 | 0.00 | 0.00 | 0.00 | 100 | |
| 20260509072823 | 42 | 333 | 0.0 | 4.0 | 0.00 | 0.00 | 0.00 | 100 | |
| 20260509070822 | 42 | 22 | 4.0 | 6.0 | 0.00 | 0.00 | 0.00 | 100 | |
| 20260509064821 | 42 | 300 | 1.0 | 4.0 | 0.00 | 0.00 | 0.00 | 100 | |
| 20260509062819 | 41 | 352 | 4.0 | 5.0 | 0.00 | 0.00 | 0.00 | 100 | |
| 20260509060818 | 39 | 279 | 0.0 | 0.0 | 0.00 | 0.00 | 0.00 | 100 | |
| 20260509054817 | 39 | 279 | 0.0 | 0.0 | 0.00 | 0.00 | 0.00 | 100 | |
| 20260509052816 | 38 | 279 | 0.0 | 0.0 | 0.00 | 0.00 | 0.00 | 100 | |
| 20260509050815 | 37 | 279 | 0.0 | 0.0 | 0.00 | 0.00 | 0.00 | 100 | |
| 20260509044814 | 36 | 330 | 0.0 | 2.0 | 0.00 | 0.00 | 0.00 | 100 | |
| 20260509042813 | 34 | 144 | 0.0 | 0.0 | 0.00 | 0.00 | 0.00 | 100 | |
| 20260509040811 | 32 | 144 | 0.0 | 0.0 | 0.00 | 0.00 | 0.00 | 100 | |
| 20260509034810 | 33 | 144 | 0.0 | 0.0 | 0.00 | 0.00 | 0.00 | 100 | |
| 20260509032810 | 34 | 112 | 3.0 | 4.0 | 0.00 | 0.00 | 0.00 | 100 | |
| 20260509030808 | 34 | 157 | 3.0 | 4.0 | 0.00 | 0.00 | 0.00 | 100 | |
| 20260509024807 | 34 | 163 | 3.0 | 5.0 | 0.00 | 0.00 | 0.00 | 100 | |
| 20260509022806 | 34 | 142 | 4.0 | 4.0 | 0.00 | 0.00 | 0.00 | 100 | |
| 20260509020805 | 33 | 104 | 2.0 | 4.0 | 0.00 | 0.00 | 0.00 | 100 | |
| 20260509014803 | 34 | 92 | 0.0 | 0.0 | 0.00 | 0.00 | 0.00 | 100 | |
| 20260509012802 | 33 | 92 | 0.0 | 0.0 | 0.00 | 0.00 | 0.00 | 100 | |
| 20260509010801 | 33 | 92 | 0.0 | 0.0 | 0.00 | 0.00 | 0.00 | 100 | |
| 20260509004800 | 33 | 92 | 0.0 | 0.0 | 0.00 | 0.00 | 0.00 | 100 | |
| 20260509002759 | 34 | 92 | 0.0 | 0.0 | 0.00 | 0.00 | 0.00 | 100 | |
| 20260509000758 | 35 | 92 | 0.0 | 0.0 | 0.00 | 0.00 | 0.00 | 100 | |
| 20260508234756 | 35 | 92 | 0.0 | 2.0 | 0.00 | 0.00 | 0.00 | 100 | |
| 20260508232756 | 35 | 74 | 0.0 | 0.0 | 0.00 | 0.00 | 0.00 | 100 | |
| 20260508230754 | 36 | 74 | 0.0 | 0.0 | 0.00 | 0.00 | 0.00 | 100 | |
| 20260508222752 | 35 | 74 | 0.0 | 0.0 | 0.00 | 0.00 | 0.00 | 100 | |
| 20260508220751 | 35 | 74 | 0.0 | 0.0 | 0.00 | 0.00 | 0.00 | 100 | |
| 20260508214750 | 36 | 92 | 0.0 | 1.0 | 0.00 | 0.00 | 0.00 | 100 | |
| 20260508212748 | 37 | 189 | 1.0 | 3.0 | 0.00 | 0.00 | 0.00 | 100 | |
| 20260508210747 | 36 | 147 | 2.0 | 4.0 | 0.00 | 0.00 | 0.00 | 100 | |
| 20260508204746 | 38 | 137 | 2.0 | 3.0 | 0.00 | 0.00 | 0.00 | 100 | |
| 20260508202745 | 38 | 95 | 3.0 | 3.0 | 0.00 | 0.00 | 0.00 | 100 | |
| 20260508200744 | 38 | 111 | 0.0 | 0.0 | 0.00 | 0.00 | 0.00 | 100 | |
| 20260508194743 | 39 | 111 | 0.0 | 0.0 | 0.00 | 0.00 | 0.00 | 100 | |
| 20260508192742 | 39 | 163 | 0.0 | 5.0 | 0.00 | 0.00 | 0.00 | 100 | |
| 20260508190740 | 39 | 174 | 3.0 | 5.0 | 0.00 | 0.00 | 0.00 | 100 | |
| 20260508184739 | 39 | 39 | 3.0 | 4.0 | 0.00 | 0.00 | 0.00 | 100 | |
| 20260508182738 | 41 | 87 | 1.0 | 1.0 | 0.00 | 0.00 | 0.00 | 100 | |
| 20260508180737 | 42 | 345 | 0.0 | 0.0 | 0.00 | 0.00 | 0.00 | 100 | |
| 20260508174736 | 43 | 345 | 0.0 | 0.0 | 0.00 | 0.00 | 0.00 | 100 | |
| 20260508172735 | 44 | 345 | 0.0 | 0.0 | 0.00 | 0.00 | 0.00 | 100 | |
| 20260508170734 | 44 | 345 | 0.0 | 0.0 | 0.00 | 0.00 | 0.00 | 100 | |
| 20260508164732 | 45 | 345 | 0.0 | 1.0 | 0.00 | 0.00 | 0.00 | 100 | |
| 20260508162731 | 48 | 56 | 0.0 | 2.0 | 0.00 | 0.00 | 0.00 | 100 | |
| 20260508160730 | 47 | 112 | 0.0 | 0.0 | 0.00 | 0.00 | 0.00 | 100 | |
| 20260508154729 | 45 | 167 | 2.0 | 3.0 | 0.00 | 0.00 | 0.00 | 100 | |
| 20260508152728 | 43 | 203 | 1.0 | 3.0 | 0.00 | 0.00 | 0.00 | 100 | |
| 20260508150727 | 44 | 292 | 2.0 | 7.0 | 0.00 | 0.00 | 0.00 | 100 | |
| 20260508144726 | 47 | 174 | 0.0 | 0.0 | 0.00 | 0.00 | 0.00 | 100 | |
| 20260508142724 | 48 | 119 | 0.0 | 1.0 | 0.00 | 0.00 | 0.00 | 100 | |
| 20260508140723 | 48 | 0 | 0.0 | 2.0 | 0.00 | 0.00 | 0.00 | 100 | |
| 20260508134722 | 46 | 209 | 0.0 | 2.0 | 0.00 | 0.00 | 0.00 | 100 | |
| 20260508132721 | 45 | 262 | 0.0 | 0.0 | 0.00 | 0.00 | 0.00 | 100 | |
| 20260508130720 | 47 | 341 | 0.0 | 5.0 | 0.00 | 0.00 | 0.00 | 100 | |
| 20260508124719 | 47 | 334 | 1.0 | 7.0 | 0.00 | 0.00 | 0.00 | 100 | |
| 20260508122718 | 48 | 9 | 2.0 | 4.0 | 0.00 | 0.00 | 0.00 | 100 | |
| 20260508120716 | 49 | 333 | 2.0 | 6.0 | 0.00 | 0.00 | 0.00 | 100 |